Year,Month,Day,Hour,Minute,Value (Times are PST for windspeed in km/hr)
2015,11,17,00,00,9.70
2015,11,17,00,01,9.40
2015,11,17,00,02,11.20
2015,11,17,00,03,9.40
2015,11,17,00,04,7.90
2015,11,17,00,05,6.70
2015,11,17,00,06,7.70
2015,11,17,00,07,7.30
2015,11,17,00,08,8.80
2015,11,17,00,09,9.30
2015,11,17,00,10,7.90
2015,11,17,00,11,9.00
2015,11,17,00,12,13.70
2015,11,17,00,13,10.80
2015,11,17,00,14,9.20
2015,11,17,00,15,8.10
2015,11,17,00,16,10.80
2015,11,17,00,17,8.90
2015,11,17,00,18,11.40
2015,11,17,00,19,12.70
2015,11,17,00,20,9.90
2015,11,17,00,21,13.90
2015,11,17,00,22,13.20
2015,11,17,00,23,13.80
2015,11,17,00,24,15.50
2015,11,17,00,25,10.10
2015,11,17,00,26,15.40
2015,11,17,00,27,13.40
2015,11,17,00,28,11.30
2015,11,17,00,29,15.00
2015,11,17,00,30,13.50
2015,11,17,00,31,15.00
2015,11,17,00,32,9.30
2015,11,17,00,33,12.60
2015,11,17,00,34,14.20
2015,11,17,00,35,12.00
2015,11,17,00,36,13.50
2015,11,17,00,37,8.00
2015,11,17,00,38,8.00
2015,11,17,00,39,8.50
2015,11,17,00,40,10.60
2015,11,17,00,41,7.50
2015,11,17,00,42,9.80
2015,11,17,00,43,8.90
2015,11,17,00,44,13.50
2015,11,17,00,45,15.60
2015,11,17,00,46,16.20
2015,11,17,00,47,12.30
2015,11,17,00,48,11.60
2015,11,17,00,49,8.70
2015,11,17,00,50,11.40
2015,11,17,00,51,12.40
2015,11,17,00,52,13.00
2015,11,17,00,53,16.20
2015,11,17,00,54,16.00
2015,11,17,00,55,9.70
2015,11,17,00,56,19.60
2015,11,17,00,57,16.00
2015,11,17,00,58,14.60
2015,11,17,00,59,13.00
2015,11,17,01,00,14.40
2015,11,17,01,01,14.60
2015,11,17,01,02,17.20
2015,11,17,01,03,14.80
2015,11,17,01,04,10.60
2015,11,17,01,05,9.90
2015,11,17,01,06,9.60
2015,11,17,01,07,6.80
2015,11,17,01,08,5.80
2015,11,17,01,09,9.20
2015,11,17,01,10,9.70
2015,11,17,01,11,10.00
2015,11,17,01,12,5.70
2015,11,17,01,13,6.70
2015,11,17,01,14,8.30
2015,11,17,01,15,8.40
2015,11,17,01,16,13.20
2015,11,17,01,17,7.60
2015,11,17,01,18,8.90
2015,11,17,01,19,7.70
2015,11,17,01,20,5.70
2015,11,17,01,21,5.30
2015,11,17,01,22,4.20
2015,11,17,01,23,6.10
2015,11,17,01,24,4.80
2015,11,17,01,25,5.90
2015,11,17,01,26,6.30
2015,11,17,01,27,5.60
2015,11,17,01,28,5.80
2015,11,17,01,29,7.10
2015,11,17,01,30,7.30
2015,11,17,01,31,7.70
2015,11,17,01,32,5.10
2015,11,17,01,33,3.20
2015,11,17,01,34,4.00
2015,11,17,01,35,6.10
2015,11,17,01,36,3.90
2015,11,17,01,37,4.30
2015,11,17,01,38,4.70
2015,11,17,01,39,5.80
2015,11,17,01,40,5.00
2015,11,17,01,41,2.70
2015,11,17,01,42,4.30
2015,11,17,01,43,2.80
2015,11,17,01,44,4.30
2015,11,17,01,45,2.70
2015,11,17,01,46,3.40
2015,11,17,01,47,4.00
2015,11,17,01,48,6.30
2015,11,17,01,49,4.30
2015,11,17,01,50,2.40
2015,11,17,01,51,4.50
2015,11,17,01,52,3.80
2015,11,17,01,53,6.90
2015,11,17,01,54,6.70
2015,11,17,01,55,4.00
2015,11,17,01,56,3.50
2015,11,17,01,57,2.60
2015,11,17,01,58,2.10
2015,11,17,01,59,3.20
2015,11,17,02,00,3.10
2015,11,17,02,01,3.10
2015,11,17,02,02,2.00
2015,11,17,02,03,1.50
2015,11,17,02,04,2.10
2015,11,17,02,05,0.90
2015,11,17,02,06,1.00
2015,11,17,02,07,1.30
2015,11,17,02,08,0.40
2015,11,17,02,09,1.30
2015,11,17,02,10,1.40
2015,11,17,02,11,2.40
2015,11,17,02,12,2.40
2015,11,17,02,13,3.20
2015,11,17,02,14,3.00
2015,11,17,02,15,2.80
2015,11,17,02,16,2.00
2015,11,17,02,17,2.00
2015,11,17,02,18,3.20
2015,11,17,02,19,4.20
2015,11,17,02,20,5.40
2015,11,17,02,21,4.70
2015,11,17,02,22,3.40
2015,11,17,02,23,4.70
2015,11,17,02,24,2.20
2015,11,17,02,25,1.30
2015,11,17,02,26,2.50
2015,11,17,02,27,4.20
2015,11,17,02,28,4.20
2015,11,17,02,29,3.40
2015,11,17,02,30,2.20
2015,11,17,02,31,1.20
2015,11,17,02,32,2.80
2015,11,17,02,33,2.50
2015,11,17,02,34,3.60
2015,11,17,02,35,2.10
2015,11,17,02,36,2.40
2015,11,17,02,37,3.40
2015,11,17,02,38,2.50
2015,11,17,02,39,3.10
2015,11,17,02,40,2.10
2015,11,17,02,41,4.30
2015,11,17,02,42,2.60
2015,11,17,02,43,1.10
2015,11,17,02,44,0.90
2015,11,17,02,45,3.10
2015,11,17,02,46,2.00
2015,11,17,02,47,2.80
2015,11,17,02,48,4.80
2015,11,17,02,49,2.80
2015,11,17,02,50,3.70
2015,11,17,02,51,3.50
2015,11,17,02,52,4.60
2015,11,17,02,53,5.00
2015,11,17,02,54,4.10
2015,11,17,02,55,5.90
2015,11,17,02,56,7.60
2015,11,17,02,57,6.00
2015,11,17,02,58,11.00
2015,11,17,02,59,6.40
2015,11,17,03,00,4.10
2015,11,17,03,01,3.70
2015,11,17,03,02,3.50
2015,11,17,03,03,5.60
2015,11,17,03,04,6.80
2015,11,17,03,05,3.80
2015,11,17,03,06,3.10
2015,11,17,03,07,3.90
2015,11,17,03,08,1.50
2015,11,17,03,09,5.00
2015,11,17,03,10,4.30
2015,11,17,03,11,3.00
2015,11,17,03,12,3.30
2015,11,17,03,13,2.90
2015,11,17,03,14,1.90
2015,11,17,03,15,3.90
2015,11,17,03,16,4.70
2015,11,17,03,17,4.00
2015,11,17,03,18,1.70
2015,11,17,03,19,2.80
2015,11,17,03,20,3.30
2015,11,17,03,21,3.30
2015,11,17,03,22,4.40
2015,11,17,03,23,2.10
2015,11,17,03,24,3.60
2015,11,17,03,25,3.90
2015,11,17,03,26,1.90
2015,11,17,03,27,4.70
2015,11,17,03,28,2.80
2015,11,17,03,29,3.00
2015,11,17,03,30,3.80
2015,11,17,03,31,2.40
2015,11,17,03,32,4.90
2015,11,17,03,33,7.50
2015,11,17,03,34,6.40
2015,11,17,03,35,4.70
2015,11,17,03,36,5.90
2015,11,17,03,37,3.10
2015,11,17,03,38,1.70
2015,11,17,03,39,3.90
2015,11,17,03,40,3.50
2015,11,17,03,41,4.20
2015,11,17,03,42,4.90
2015,11,17,03,43,5.20
2015,11,17,03,44,3.80
2015,11,17,03,45,1.00
2015,11,17,03,46,0.60
2015,11,17,03,47,1.50
2015,11,17,03,48,1.50
2015,11,17,03,49,1.20
2015,11,17,03,50,1.60
2015,11,17,03,51,0.30
2015,11,17,03,52,1.50
2015,11,17,03,53,5.00
2015,11,17,03,54,5.30
2015,11,17,03,55,3.00
2015,11,17,03,56,3.20
2015,11,17,03,57,2.60
2015,11,17,03,58,2.70
2015,11,17,03,59,2.30
2015,11,17,04,00,4.70
2015,11,17,04,01,2.40
2015,11,17,04,02,2.60
2015,11,17,04,03,2.60
2015,11,17,04,04,2.10
2015,11,17,04,05,3.00
2015,11,17,04,06,3.20
2015,11,17,04,07,3.20
2015,11,17,04,08,4.10
2015,11,17,04,09,3.70
2015,11,17,04,10,6.30
2015,11,17,04,11,4.70
2015,11,17,04,12,3.90
2015,11,17,04,13,4.10
2015,11,17,04,14,5.30
2015,11,17,04,15,7.10
2015,11,17,04,16,8.40
2015,11,17,04,17,3.60
2015,11,17,04,18,1.80
2015,11,17,04,19,3.80
2015,11,17,04,20,9.20
2015,11,17,04,21,9.30
2015,11,17,04,22,5.20
2015,11,17,04,23,5.20
2015,11,17,04,24,6.90
2015,11,17,04,25,5.20
2015,11,17,04,26,4.10
2015,11,17,04,27,2.00
2015,11,17,04,28,5.40
2015,11,17,04,29,7.30
2015,11,17,04,30,6.30
2015,11,17,04,31,8.70
2015,11,17,04,32,15.20
2015,11,17,04,33,5.70
2015,11,17,04,34,5.10
2015,11,17,04,35,2.80
2015,11,17,04,36,3.30
2015,11,17,04,37,5.10
2015,11,17,04,38,6.20
2015,11,17,04,39,3.30
2015,11,17,04,40,4.10
2015,11,17,04,41,3.70
2015,11,17,04,42,1.60
2015,11,17,04,43,2.90
2015,11,17,04,44,2.40
2015,11,17,04,45,3.00
2015,11,17,04,46,5.70
2015,11,17,04,47,3.50
2015,11,17,04,48,4.10
2015,11,17,04,49,4.30
2015,11,17,04,50,6.00
2015,11,17,04,51,3.50
2015,11,17,04,52,3.90
2015,11,17,04,53,4.40
2015,11,17,04,54,3.60
2015,11,17,04,55,1.40
2015,11,17,04,56,2.40
2015,11,17,04,57,5.10
2015,11,17,04,58,3.90
2015,11,17,04,59,4.10
2015,11,17,05,00,5.20
2015,11,17,05,01,3.10
2015,11,17,05,02,2.20
2015,11,17,05,03,3.40
2015,11,17,05,04,3.50
2015,11,17,05,05,3.80
2015,11,17,05,06,3.90
2015,11,17,05,07,4.70
2015,11,17,05,08,5.70
2015,11,17,05,09,4.20
2015,11,17,05,10,2.70
2015,11,17,05,11,2.40
2015,11,17,05,12,4.80
2015,11,17,05,13,2.30
2015,11,17,05,14,4.20
2015,11,17,05,15,6.80
2015,11,17,05,16,7.80
2015,11,17,05,17,5.00
2015,11,17,05,18,5.00
2015,11,17,05,19,3.40
2015,11,17,05,20,4.40
2015,11,17,05,21,4.20
2015,11,17,05,22,6.60
2015,11,17,05,23,6.90
2015,11,17,05,24,5.00
2015,11,17,05,25,4.70
2015,11,17,05,26,5.50
2015,11,17,05,27,3.60
2015,11,17,05,28,5.60
2015,11,17,05,29,6.50
2015,11,17,05,30,9.30
2015,11,17,05,31,4.70
2015,11,17,05,32,6.50
2015,11,17,05,33,5.20
2015,11,17,05,34,5.90
2015,11,17,05,35,7.40
2015,11,17,05,36,8.80
2015,11,17,05,37,4.40
2015,11,17,05,38,9.40
2015,11,17,05,39,8.40
2015,11,17,05,40,7.20
2015,11,17,05,41,4.30
2015,11,17,05,42,6.50
2015,11,17,05,43,7.30
2015,11,17,05,44,6.40
2015,11,17,05,45,9.70
2015,11,17,05,46,8.80
2015,11,17,05,47,7.90
2015,11,17,05,48,10.60
2015,11,17,05,49,9.50
2015,11,17,05,50,7.30
2015,11,17,05,51,10.40
2015,11,17,05,52,7.70
2015,11,17,05,53,9.20
2015,11,17,05,54,11.50
2015,11,17,05,55,11.30
2015,11,17,05,56,11.20
2015,11,17,05,57,13.20
2015,11,17,05,58,18.50
2015,11,17,05,59,14.80
2015,11,17,06,00,16.00
2015,11,17,06,01,27.30
2015,11,17,06,02,17.90
2015,11,17,06,03,25.70
2015,11,17,06,04,23.40
2015,11,17,06,05,21.80
2015,11,17,06,06,19.60
2015,11,17,06,07,26.20
2015,11,17,06,08,21.80
2015,11,17,06,09,22.90
2015,11,17,06,10,28.60
2015,11,17,06,11,21.60
2015,11,17,06,12,28.30
2015,11,17,06,13,28.00
2015,11,17,06,14,27.10
2015,11,17,06,15,31.90
2015,11,17,06,16,29.10
2015,11,17,06,17,23.20
2015,11,17,06,18,33.90
2015,11,17,06,19,24.10
2015,11,17,06,20,16.70
2015,11,17,06,21,20.60
2015,11,17,06,22,30.70
2015,11,17,06,23,27.30
2015,11,17,06,24,24.60
2015,11,17,06,25,23.90
2015,11,17,06,26,30.50
2015,11,17,06,27,35.20
2015,11,17,06,28,27.20
2015,11,17,06,29,30.40
2015,11,17,06,30,25.70
2015,11,17,06,31,21.70
2015,11,17,06,32,22.70
2015,11,17,06,33,28.60
2015,11,17,06,34,27.40
2015,11,17,06,35,14.60
2015,11,17,06,36,20.30
2015,11,17,06,37,23.50
2015,11,17,06,38,29.40
2015,11,17,06,39,27.60
2015,11,17,06,40,20.80
2015,11,17,06,41,20.30
2015,11,17,06,42,19.80
2015,11,17,06,43,23.30
2015,11,17,06,44,13.60
2015,11,17,06,45,20.00
2015,11,17,06,46,29.20
2015,11,17,06,47,29.50
2015,11,17,06,48,23.00
2015,11,17,06,49,27.00
2015,11,17,06,50,23.40
2015,11,17,06,51,27.90
2015,11,17,06,52,26.60
2015,11,17,06,53,19.30
2015,11,17,06,54,30.30
2015,11,17,06,55,26.40
2015,11,17,06,56,21.20
2015,11,17,06,57,29.70
2015,11,17,06,58,29.10
2015,11,17,06,59,23.70
2015,11,17,07,00,24.70
2015,11,17,07,01,28.00
2015,11,17,07,02,25.90
2015,11,17,07,03,29.20
2015,11,17,07,04,25.70
2015,11,17,07,05,26.40
2015,11,17,07,06,27.90
2015,11,17,07,07,27.40
2015,11,17,07,08,21.40
2015,11,17,07,09,23.70
2015,11,17,07,10,33.00
2015,11,17,07,11,34.00
2015,11,17,07,12,26.40
2015,11,17,07,13,26.80
2015,11,17,07,14,33.40
2015,11,17,07,15,32.90
2015,11,17,07,16,21.60
2015,11,17,07,17,35.00
2015,11,17,07,18,28.60
2015,11,17,07,19,23.90
2015,11,17,07,20,30.50
2015,11,17,07,21,30.30
2015,11,17,07,22,27.30
2015,11,17,07,23,28.10
2015,11,17,07,24,26.40
2015,11,17,07,25,22.40
2015,11,17,07,26,36.00
2015,11,17,07,27,31.40
2015,11,17,07,28,30.90
2015,11,17,07,29,30.30
2015,11,17,07,30,30.20
2015,11,17,07,31,31.00
2015,11,17,07,32,31.40
2015,11,17,07,33,32.40
2015,11,17,07,34,25.80
2015,11,17,07,35,28.80
2015,11,17,07,36,33.60
2015,11,17,07,37,30.70
2015,11,17,07,38,27.80
2015,11,17,07,39,36.30
2015,11,17,07,40,26.60
2015,11,17,07,41,28.70
2015,11,17,07,42,41.00
2015,11,17,07,43,34.50
2015,11,17,07,44,33.40
2015,11,17,07,45,31.20
2015,11,17,07,46,27.50
2015,11,17,07,47,26.70
2015,11,17,07,48,26.40
2015,11,17,07,49,29.10
2015,11,17,07,50,26.90
2015,11,17,07,51,29.00
2015,11,17,07,52,24.50
2015,11,17,07,53,27.10
2015,11,17,07,54,25.90
2015,11,17,07,55,24.90
2015,11,17,07,56,25.90
2015,11,17,07,57,24.30
2015,11,17,07,58,26.70
2015,11,17,07,59,26.20
2015,11,17,08,00,26.40
2015,11,17,08,01,22.90
2015,11,17,08,02,26.70
2015,11,17,08,03,26.80
2015,11,17,08,04,26.20
2015,11,17,08,05,21.90
2015,11,17,08,06,28.70
2015,11,17,08,07,23.30
2015,11,17,08,08,19.70
2015,11,17,08,09,27.70
2015,11,17,08,10,23.80
2015,11,17,08,11,32.10
2015,11,17,08,12,22.20
2015,11,17,08,13,25.80
2015,11,17,08,14,22.10
2015,11,17,08,15,18.60
2015,11,17,08,16,18.20
2015,11,17,08,17,17.30
2015,11,17,08,18,24.90
2015,11,17,08,19,20.80
2015,11,17,08,20,26.00
2015,11,17,08,21,20.80
2015,11,17,08,22,19.40
2015,11,17,08,23,23.10
2015,11,17,08,24,19.20
2015,11,17,08,25,25.90
2015,11,17,08,26,25.90
2015,11,17,08,27,24.90
2015,11,17,08,28,27.40
2015,11,17,08,29,24.80
2015,11,17,08,30,22.40
2015,11,17,08,31,17.70
2015,11,17,08,32,18.90
2015,11,17,08,33,22.90
2015,11,17,08,34,21.60
2015,11,17,08,35,18.80
2015,11,17,08,36,13.80
2015,11,17,08,37,15.70
2015,11,17,08,38,13.90
2015,11,17,08,39,17.20
2015,11,17,08,40,18.60
2015,11,17,08,41,16.90
2015,11,17,08,42,19.20
2015,11,17,08,43,18.40
2015,11,17,08,44,12.60
2015,11,17,08,45,14.30
2015,11,17,08,46,18.30
2015,11,17,08,47,13.00
2015,11,17,08,48,14.60
2015,11,17,08,49,16.20
2015,11,17,08,50,17.60
2015,11,17,08,51,15.70
2015,11,17,08,52,18.50
2015,11,17,08,53,30.40
2015,11,17,08,54,29.50
2015,11,17,08,55,23.10
2015,11,17,08,56,19.30
2015,11,17,08,57,22.90
2015,11,17,08,58,24.30
2015,11,17,08,59,25.90
2015,11,17,09,00,28.80
2015,11,17,09,01,32.70
2015,11,17,09,02,24.40
2015,11,17,09,03,27.30
2015,11,17,09,04,35.20
2015,11,17,09,05,33.30
2015,11,17,09,06,31.90
2015,11,17,09,07,27.80
2015,11,17,09,08,33.30
2015,11,17,09,09,31.50
2015,11,17,09,10,30.30
2015,11,17,09,11,30.30
2015,11,17,09,12,24.90
2015,11,17,09,13,26.20
2015,11,17,09,14,32.00
2015,11,17,09,15,30.30
2015,11,17,09,16,35.30
2015,11,17,09,17,29.40
2015,11,17,09,18,32.90
2015,11,17,09,19,27.40
2015,11,17,09,20,30.40
2015,11,17,09,21,27.40
2015,11,17,09,22,35.20
2015,11,17,09,23,31.10
2015,11,17,09,24,35.20
2015,11,17,09,25,37.70
2015,11,17,09,26,39.70
2015,11,17,09,27,34.40
2015,11,17,09,28,40.10
2015,11,17,09,29,30.10
2015,11,17,09,30,29.20
2015,11,17,09,31,40.10
2015,11,17,09,32,35.70
2015,11,17,09,33,41.90
2015,11,17,09,34,34.30
2015,11,17,09,35,34.30
2015,11,17,09,36,24.60
2015,11,17,09,37,32.30
2015,11,17,09,38,28.90
2015,11,17,09,39,28.60
2015,11,17,09,40,34.20
2015,11,17,09,41,42.90
2015,11,17,09,42,35.70
2015,11,17,09,43,31.10
2015,11,17,09,44,35.60
2015,11,17,09,45,35.20
2015,11,17,09,46,33.70
2015,11,17,09,47,36.00
2015,11,17,09,48,37.00
2015,11,17,09,49,32.60
2015,11,17,09,50,33.40
2015,11,17,09,51,32.80
2015,11,17,09,52,31.90
2015,11,17,09,53,35.10
2015,11,17,09,54,31.20
2015,11,17,09,55,32.90
2015,11,17,09,56,38.20
2015,11,17,09,57,43.50
2015,11,17,09,58,33.80
2015,11,17,09,59,33.90
2015,11,17,10,00,40.20
2015,11,17,10,01,34.00
2015,11,17,10,02,37.00
2015,11,17,10,03,31.80
2015,11,17,10,04,35.10
2015,11,17,10,05,33.60
2015,11,17,10,06,30.10
2015,11,17,10,07,24.40
2015,11,17,10,08,28.40
2015,11,17,10,09,31.40
2015,11,17,10,10,30.10
2015,11,17,10,11,37.50
2015,11,17,10,12,35.50
2015,11,17,10,13,38.70
2015,11,17,10,14,41.20
2015,11,17,10,15,35.40
2015,11,17,10,16,35.20
2015,11,17,10,17,31.20
2015,11,17,10,18,43.50
2015,11,17,10,19,31.60
2015,11,17,10,20,32.00
2015,11,17,10,21,37.30
2015,11,17,10,22,30.40
2015,11,17,10,23,30.90
2015,11,17,10,24,49.70
2015,11,17,10,25,50.00
2015,11,17,10,26,37.00
2015,11,17,10,27,31.50
2015,11,17,10,29,35.00
2015,11,17,10,30,36.20
2015,11,17,10,31,39.70
2015,11,17,10,32,38.10
2015,11,17,10,33,45.90
2015,11,17,10,34,43.00
2015,11,17,10,35,37.50
2015,11,17,10,36,32.00
2015,11,17,10,37,26.30
2015,11,17,10,38,37.50
2015,11,17,10,39,43.70
2015,11,17,10,40,33.60
2015,11,17,10,41,37.40
2015,11,17,10,42,41.90
2015,11,17,10,43,47.30
2015,11,17,10,44,43.50
2015,11,17,10,45,44.80
2015,11,17,10,46,34.40
2015,11,17,10,47,36.60
2015,11,17,10,48,51.40
2015,11,17,10,49,29.20
2015,11,17,10,50,33.40
2015,11,17,10,51,42.40
2015,11,17,10,52,38.20
2015,11,17,10,53,39.30
2015,11,17,10,54,32.90
2015,11,17,10,55,39.60
2015,11,17,10,56,35.60
2015,11,17,10,57,36.60
2015,11,17,10,58,37.90
2015,11,17,10,59,48.40
2015,11,17,11,00,41.70
2015,11,17,11,01,45.40
2015,11,17,11,02,43.80
2015,11,17,11,03,45.50
2015,11,17,11,04,38.10
2015,11,17,11,05,31.20
2015,11,17,11,06,43.10
2015,11,17,11,07,42.40
2015,11,17,11,08,40.50
2015,11,17,11,09,31.90
2015,11,17,11,10,32.30
2015,11,17,11,11,32.80
2015,11,17,11,12,37.90
2015,11,17,11,13,35.30
2015,11,17,11,14,35.20
2015,11,17,11,15,43.60
2015,11,17,11,16,34.00
2015,11,17,11,17,36.50
2015,11,17,11,18,41.40
2015,11,17,11,19,31.60
2015,11,17,11,20,33.30
2015,11,17,11,21,35.20
2015,11,17,11,22,39.20
2015,11,17,11,23,42.10
2015,11,17,11,24,42.10
2015,11,17,11,25,41.70
2015,11,17,11,26,42.10
2015,11,17,11,27,43.60
2015,11,17,11,28,41.10
2015,11,17,11,29,28.40
2015,11,17,11,30,40.60
2015,11,17,11,31,41.00
2015,11,17,11,32,43.20
2015,11,17,11,33,47.50
2015,11,17,11,34,40.80
2015,11,17,11,35,42.60
2015,11,17,11,36,45.70
2015,11,17,11,37,42.90
2015,11,17,11,38,37.60
2015,11,17,11,39,38.90
2015,11,17,11,40,48.30
2015,11,17,11,41,40.40
2015,11,17,11,42,45.10
2015,11,17,11,43,45.30
2015,11,17,11,44,39.60
2015,11,17,11,45,49.10
2015,11,17,11,46,42.10
2015,11,17,11,47,44.10
2015,11,17,11,48,43.30
2015,11,17,11,49,40.10
2015,11,17,11,50,38.90
2015,11,17,11,51,30.70
2015,11,17,11,52,39.10
2015,11,17,11,53,40.50
2015,11,17,11,54,55.30
2015,11,17,11,55,39.70
2015,11,17,11,56,41.50
2015,11,17,11,57,41.30
2015,11,17,11,58,28.30
2015,11,17,11,59,24.00
2015,11,17,12,00,21.50
2015,11,17,12,01,31.00
2015,11,17,12,02,20.00
2015,11,17,12,03,30.60
2015,11,17,12,04,28.00
2015,11,17,12,05,27.80
2015,11,17,12,06,36.20
2015,11,17,12,07,27.70
2015,11,17,12,08,37.80
2015,11,17,12,09,24.70
2015,11,17,12,10,21.80
2015,11,17,12,11,25.80
2015,11,17,12,12,20.20
2015,11,17,12,13,29.40
2015,11,17,12,14,29.00
2015,11,17,12,15,33.40
2015,11,17,12,16,26.40
2015,11,17,12,17,25.40
2015,11,17,12,18,17.90
2015,11,17,12,19,30.40
2015,11,17,12,20,33.20
2015,11,17,12,21,30.90
2015,11,17,12,22,35.70
2015,11,17,12,23,25.80
2015,11,17,12,24,25.80
2015,11,17,12,25,24.10
2015,11,17,12,26,25.10
2015,11,17,12,27,12.50
2015,11,17,12,28,21.70
2015,11,17,12,29,31.10
2015,11,17,12,30,20.80
2015,11,17,12,31,29.90
2015,11,17,12,32,27.90
2015,11,17,12,33,24.00
2015,11,17,12,34,23.30
2015,11,17,12,35,21.60
2015,11,17,12,36,27.10
2015,11,17,12,37,23.90
2015,11,17,12,38,24.90
2015,11,17,12,39,24.80
2015,11,17,12,40,32.60
2015,11,17,12,41,27.40
2015,11,17,12,42,19.80
2015,11,17,12,43,23.80
2015,11,17,12,44,25.20
2015,11,17,12,45,20.70
2015,11,17,12,46,22.40
2015,11,17,12,47,23.40
2015,11,17,12,48,23.90
2015,11,17,12,49,27.10
2015,11,17,12,50,18.00
2015,11,17,12,51,19.20
2015,11,17,12,52,15.50
2015,11,17,12,53,26.60
2015,11,17,12,54,24.40
2015,11,17,12,55,22.40
2015,11,17,12,56,24.00
2015,11,17,12,57,20.00
2015,11,17,12,58,25.20
2015,11,17,12,59,28.70
2015,11,17,13,00,27.00
2015,11,17,13,01,22.90
2015,11,17,13,02,18.00
2015,11,17,13,03,14.40
2015,11,17,13,04,25.70
2015,11,17,13,05,29.40
2015,11,17,13,06,24.40
2015,11,17,13,07,24.90
2015,11,17,13,08,32.90
2015,11,17,13,09,19.80
2015,11,17,13,10,17.10
2015,11,17,13,11,26.10
2015,11,17,13,12,22.90
2015,11,17,13,13,24.60
2015,11,17,13,14,18.10
2015,11,17,13,15,18.60
2015,11,17,13,16,22.60
2015,11,17,13,17,27.60
2015,11,17,13,18,31.90
2015,11,17,13,19,33.50
2015,11,17,13,20,29.00
2015,11,17,13,21,29.50
2015,11,17,13,22,33.60
2015,11,17,13,23,25.40
2015,11,17,13,24,22.00
2015,11,17,13,25,22.50
2015,11,17,13,26,22.70
2015,11,17,13,27,24.90
2015,11,17,13,28,24.20
2015,11,17,13,29,23.90
2015,11,17,13,30,17.80
2015,11,17,13,31,28.40
2015,11,17,13,32,29.30
2015,11,17,13,33,23.80
2015,11,17,13,34,25.80
2015,11,17,13,35,31.70
2015,11,17,13,36,29.70
2015,11,17,13,37,39.50
2015,11,17,13,38,25.40
2015,11,17,13,39,25.00
2015,11,17,13,40,20.00
2015,11,17,13,41,25.40
2015,11,17,13,42,26.30
2015,11,17,13,43,27.40
2015,11,17,13,44,29.10
2015,11,17,13,45,23.50
2015,11,17,13,46,23.10
2015,11,17,13,47,26.80
2015,11,17,13,48,30.60
2015,11,17,13,49,24.40
2015,11,17,13,50,29.00
2015,11,17,13,51,31.70
2015,11,17,13,52,26.00
2015,11,17,13,53,31.60
2015,11,17,13,54,27.00
2015,11,17,13,55,27.00
2015,11,17,13,56,21.90
2015,11,17,13,57,25.50
2015,11,17,13,58,29.00
2015,11,17,13,59,30.10
2015,11,17,14,00,24.90
2015,11,17,14,01,22.20
2015,11,17,14,02,28.00
2015,11,17,14,03,32.60
2015,11,17,14,04,26.60
2015,11,17,14,05,33.60
2015,11,17,14,06,31.70
2015,11,17,14,07,25.10
2015,11,17,14,08,29.90
2015,11,17,14,09,26.30
2015,11,17,14,10,22.30
2015,11,17,14,11,32.30
2015,11,17,14,12,28.50
2015,11,17,14,13,38.10
2015,11,17,14,14,41.20
2015,11,17,14,15,28.30
2015,11,17,14,16,29.60
2015,11,17,14,17,24.60
2015,11,17,14,18,23.80
2015,11,17,14,19,25.90
2015,11,17,14,20,25.20
2015,11,17,14,21,26.00
2015,11,17,14,22,28.30
2015,11,17,14,23,25.80
2015,11,17,14,24,22.30
2015,11,17,14,25,26.10
2015,11,17,14,26,20.90
2015,11,17,14,27,33.80
2015,11,17,14,28,26.60
2015,11,17,14,29,25.80
2015,11,17,14,30,35.30
2015,11,17,14,31,32.40
2015,11,17,14,32,22.60
2015,11,17,14,33,32.60
2015,11,17,14,34,31.60
2015,11,17,14,35,25.70
2015,11,17,14,36,26.90
2015,11,17,14,37,32.80
2015,11,17,14,38,21.20
2015,11,17,14,39,26.70
2015,11,17,14,40,15.90
2015,11,17,14,41,21.00
2015,11,17,14,42,21.20
2015,11,17,14,43,20.00
2015,11,17,14,44,25.90
2015,11,17,14,45,23.10
2015,11,17,14,46,16.20
2015,11,17,14,47,29.30
2015,11,17,14,48,25.50
2015,11,17,14,49,17.90
2015,11,17,14,50,20.20
2015,11,17,14,51,19.20
2015,11,17,14,52,15.90
2015,11,17,14,53,17.20
2015,11,17,14,54,17.90
2015,11,17,14,55,20.30
2015,11,17,14,56,17.50
2015,11,17,14,57,20.40
2015,11,17,14,58,20.40
2015,11,17,14,59,19.50
2015,11,17,15,00,14.50
2015,11,17,15,01,13.30
2015,11,17,15,02,14.70
2015,11,17,15,03,16.40
2015,11,17,15,04,13.30
2015,11,17,15,05,11.70
2015,11,17,15,06,15.50
2015,11,17,15,07,14.60
2015,11,17,15,08,18.10
2015,11,17,15,09,11.80
2015,11,17,15,10,14.50
2015,11,17,15,11,16.90
2015,11,17,15,12,17.20
2015,11,17,15,13,13.10
2015,11,17,15,14,21.60
2015,11,17,15,15,11.50
2015,11,17,15,16,7.80
2015,11,17,15,17,9.40
2015,11,17,15,18,12.60
2015,11,17,15,19,13.60
2015,11,17,15,20,23.00
2015,11,17,15,21,16.00
2015,11,17,15,22,10.40
2015,11,17,15,23,11.70
2015,11,17,15,24,13.00
2015,11,17,15,25,19.40
2015,11,17,15,26,14.60
2015,11,17,15,27,21.10
2015,11,17,15,28,17.10
2015,11,17,15,29,10.70
2015,11,17,15,30,12.70
2015,11,17,15,31,14.30
2015,11,17,15,32,13.50
2015,11,17,15,33,13.10
2015,11,17,15,34,10.30
2015,11,17,15,35,15.20
2015,11,17,15,36,8.50
2015,11,17,15,37,12.90
2015,11,17,15,38,16.60
2015,11,17,15,39,12.70
2015,11,17,15,40,9.90
2015,11,17,15,41,10.60
2015,11,17,15,42,9.40
2015,11,17,15,43,12.70
2015,11,17,15,44,14.70
2015,11,17,15,45,11.70
2015,11,17,15,46,13.00
2015,11,17,15,47,12.40
2015,11,17,15,48,12.00
2015,11,17,15,49,13.00
2015,11,17,15,50,11.70
2015,11,17,15,51,13.40
2015,11,17,15,52,12.00
2015,11,17,15,53,13.30
2015,11,17,15,54,9.90
2015,11,17,15,55,9.20
2015,11,17,15,56,11.00
2015,11,17,15,57,7.10
2015,11,17,15,58,11.50
2015,11,17,15,59,15.80
2015,11,17,16,00,11.90
2015,11,17,16,01,11.30
2015,11,17,16,02,8.60
2015,11,17,16,03,13.10
2015,11,17,16,04,15.60
2015,11,17,16,05,12.50
2015,11,17,16,06,16.80
2015,11,17,16,07,17.60
2015,11,17,16,08,18.30
2015,11,17,16,09,15.10
2015,11,17,16,10,11.40
2015,11,17,16,11,16.80
2015,11,17,16,12,13.80
2015,11,17,16,13,10.90
2015,11,17,16,14,15.20
2015,11,17,16,15,12.50
2015,11,17,16,16,12.80
2015,11,17,16,17,15.40
2015,11,17,16,18,18.30
2015,11,17,16,19,22.90
2015,11,17,16,20,17.20
2015,11,17,16,21,20.50
2015,11,17,16,22,20.40
2015,11,17,16,23,19.90
2015,11,17,16,24,14.60
2015,11,17,16,25,16.70
2015,11,17,16,26,26.50
2015,11,17,16,27,19.00
2015,11,17,16,28,14.50
2015,11,17,16,29,15.20
2015,11,17,16,30,13.60
2015,11,17,16,31,18.50
2015,11,17,16,32,15.20
2015,11,17,16,33,13.00
2015,11,17,16,34,19.80
2015,11,17,16,35,16.50
2015,11,17,16,36,13.80
2015,11,17,16,37,13.60
2015,11,17,16,38,9.50
2015,11,17,16,39,13.90
2015,11,17,16,40,14.20
2015,11,17,16,41,19.80
2015,11,17,16,42,22.20
2015,11,17,16,43,13.60
2015,11,17,16,44,9.50
2015,11,17,16,45,11.60
2015,11,17,16,46,20.80
2015,11,17,16,47,12.50
2015,11,17,16,48,19.50
2015,11,17,16,49,21.30
2015,11,17,16,50,13.30
2015,11,17,16,51,13.40
2015,11,17,16,52,14.00
2015,11,17,16,53,12.90
2015,11,17,16,54,11.70
2015,11,17,16,55,11.90
2015,11,17,16,56,10.50
2015,11,17,16,57,14.40
2015,11,17,16,58,22.40
2015,11,17,16,59,20.50
2015,11,17,17,00,22.40
2015,11,17,17,01,15.80
2015,11,17,17,02,18.50
2015,11,17,17,03,20.40
2015,11,17,17,04,17.80
2015,11,17,17,05,19.20
2015,11,17,17,06,19.80
2015,11,17,17,07,17.20
2015,11,17,17,08,15.10
2015,11,17,17,09,16.70
2015,11,17,17,10,9.90
2015,11,17,17,11,12.60
2015,11,17,17,12,10.40
2015,11,17,17,13,16.60
2015,11,17,17,14,11.80
2015,11,17,17,15,12.90
2015,11,17,17,16,14.60
2015,11,17,17,17,12.20
2015,11,17,17,18,9.00
2015,11,17,17,19,9.10
2015,11,17,17,20,14.20
2015,11,17,17,21,8.10
2015,11,17,17,22,7.90
2015,11,17,17,23,6.90
2015,11,17,17,24,10.70
2015,11,17,17,25,8.90
2015,11,17,17,26,10.00
2015,11,17,17,27,10.90
2015,11,17,17,28,10.90
2015,11,17,17,29,17.90
2015,11,17,17,30,18.30
2015,11,17,17,31,19.00
2015,11,17,17,32,18.20
2015,11,17,17,33,13.00
2015,11,17,17,34,24.50